{"data":{"norad_id":59112,"intl_designator":"2024-043Q","name":"SONATE-2","alt_names":[],"object_type":"PAYLOAD","status":"ACTIVE","operator":null,"country":"GER","launch_date":"2024-03-04","launch_site_code":"AFWTR","launch_vehicle":null,"mission":null,"orbit_class":"UNKNOWN","rcs_meters":null,"size_class":null,"mass_kg":null,"dimensions":null,"purposes":["comms"],"wikipedia_slug":null,"has_3d_model":false,"image_url":null,"decayed_at":null,"tle_current":{"epoch":"2026-09-19T05:25:44.258880Z","epoch_age_seconds":124497,"freshness":"FRESH","line1":"1 59112U 24043Q   26262.22620670  .00046104  00000+0  44592-3 0  9995","line2":"2 59112  97.5624  58.9866 0005379 210.5709 149.5238 15.66288288142578","mean_motion":15.66288288,"eccentricity":0.0005379,"inclination_deg":97.5624,"raan_deg":58.9866,"arg_perigee_deg":210.5709,"mean_anomaly_deg":149.5238,"bstar":0.00044592,"rev_number":14257,"period_min":91.937098108468,"perigee_km":365.90662831822,"apogee_km":373.16577514864,"semimajor_km":6747.6732017334,"source":"CELESTRAK","updated_at":"2026-09-20T09:00:45.239310Z"}}}